Home   Weather   Reykjavik   Past weeks
Flag for Iceland

Past Weather in Reykjavik, Iceland — Yesterday and Last 2 Weeks

Now
50 °F

Broken clouds.


Feels Like: 44 °F
Forecast: 51 / 47 °F
Wind: 18 mph from East

Location: Reykjavik Airport

Current Time: Oct 15, 2019 at 10:02:18 am

Latest Report: Oct 15, 2019 at 9:00 am


Visibility: N/A

Pressure: 29.24 "Hg

Humidity: 67%

Dew Point: 39 °F

Location of ReykjavikLocation

Past Weather in Reykjavik — Graph

°F

Reykjavik Temperature Yesterday

Maximum temperature yesterday: 46 °F (at 1:00 pm)
Minimum temperature yesterday: 39 °F (at 4:00 am)
Average temperature yesterday: 44 °F

High & Low Weather Summary for the Past Weeks

 TemperatureHumidityPressure
High55 °F (Oct 7, 1:00 pm)93% (Oct 1, 9:00 am)30.18 "Hg (Oct 1, 9:00 am)
Low36 °F (Oct 1, 6:00 am)44% (Oct 7, 9:00 am)28.74 "Hg (Oct 7, 5:00 pm)
Average46 °F69%29.56 "Hg
* Reported Sep 30 9:00 am — Oct 15 9:00 am, Reykjavik. Weather by CustomWeather, © 2019

Note: Actual official high and low records may vary slightly from our data, if they occured in-between our weather recording intervals... More about our weather records

Advertising

Reykjavik Weather History for the Previous 24 Hours

Scroll right to see more
 ConditionsComfort  
Time TempWeatherWind HumidityBarometerVisibility
9:00 am
Tue, Oct 15
50 °FBroken clouds.18 mph67%29.24 "HgN/A
8:00 am50 °FPassing clouds.22 mph62%29.21 "HgN/A
7:00 am50 °FPartly cloudy.16 mph58%29.21 "HgN/A
6:00 am50 °FLight rain. Overcast.16 mph58%29.21 "HgN/A
5:00 am50 °FPartly cloudy.18 mph58%29.21 "HgN/A
4:00 am50 °FPartly cloudy.32 mph62%29.18 "HgN/A
3:00 am48 °FMostly cloudy.32 mph66%29.21 "HgN/A
1:00 am46 °FDrizzle. Mostly cloudy.30 mph76%29.21 "Hg4 mi
12:00 am46 °FDrizzle. Overcast.29 mph76%29.21 "Hg3 mi
11:00 pm
Mon, Oct 14
46 °FDrizzle. Mostly cloudy.24 mph76%29.24 "Hg4 mi
10:00 pm46 °FDrizzle. Mostly cloudy.25 mph71%29.24 "HgN/A
9:00 pm46 °FLight rain. Mostly cloudy.25 mph66%29.24 "HgN/A
8:00 pm46 °FMostly cloudy.21 mph66%29.24 "HgN/A
7:00 pm46 °FPassing clouds.18 mph62%29.27 "HgN/A
6:00 pm46 °FLight rain. Broken clouds.18 mph62%29.30 "HgN/A
5:00 pm46 °FBroken clouds.18 mph62%29.33 "HgN/A
4:00 pm46 °FLight rain. Broken clouds.20 mph62%29.33 "HgN/A
3:00 pm46 °FScattered showers. Broken clouds.17 mph66%29.36 "HgN/A
2:00 pm45 °FScattered showers. Partly sunny.21 mph71%29.39 "HgN/A
1:00 pm46 °FBroken clouds.15 mph62%29.39 "HgN/A
12:00 pm45 °FPartly sunny.21 mph53%29.39 "HgN/A
11:00 am45 °FPartly sunny.18 mph53%29.42 "HgN/A
10:00 am43 °FPartly sunny.17 mph57%29.45 "HgN/A
Weather by CustomWeather, © 2019

See weather overview